Météo Nord-Pas-de-Calais   La météo au plus près de chez vous

Station météorologique

Observations météo à Leran (09161)

09161003 391 m Dernier relevé à 06:42
11.5°C
Humidité 96 % Vent 2.5 km/h

Journée consultée

Mardi 1 Septembre 2026

Synthèse de la journée

Périodes de référence en UTC

Température maximale

23°C

à 19:00

06h 06h

Température minimale

11.5°C

à 06:36

18h 18h

Rafale maximale

7 km/h

à 05:00

00h 00h

Précipitations

0 mm

Cumul quotidien

06h 06h

Graphiques de la journée

Heure locale Réduire

Données détaillées

Relevés météo

Pas de 6 minutes Afficher les relevés infra-horaires
Relevés météo détaillés à Leran pour le Mardi 1 Septembre 2026
Heure Température °C Point de rosée °C Humidité % Vent moyen (raf.), km/h Précipitations mm
06:42 11.5 °C 10.9 °C 96 % 2 km/h (3 km/h) 0 mm0 mm
06:36 11.5 °C 10.9 °C 96 % 0 km/h (3 km/h) 0 mm0 mm
06:30 11.8 °C 11.3 °C 97 % 0 km/h (2 km/h) 0 mm0 mm
06:24 11.9 °C 11.4 °C 97 % 0 km/h (2 km/h) 0 mm0 mm
06:18 11.8 °C 11.3 °C 97 % 0 km/h (2 km/h) 0 mm0 mm
06:12 11.7 °C 11.1 °C 96 % 0 km/h (2 km/h) 0 mm0 mm
06:06 11.6 °C 11 °C 96 % 0 km/h (3 km/h) 0 mm0 mm
06:00 11.6 °C 11 °C 96 % 0 km/h (3 km/h) 0 mm0 mm
05:54 11.9 °C 11.3 °C 96 % 0 km/h (3 km/h) 0 mm0 mm
05:48 11.7 °C 11.1 °C 96 % 2 km/h (4 km/h) 0 mm0 mm
05:42 11.7 °C 11.1 °C 96 % 3 km/h (4 km/h) 0 mm0 mm
05:36 11.7 °C 10.9 °C 95 % 0 km/h (3 km/h) 0 mm0 mm
05:30 11.8 °C 11.2 °C 96 % 0 km/h (3 km/h) 0 mm0 mm
05:24 11.9 °C 11.1 °C 95 % 0 km/h (2 km/h) 0 mm0 mm
05:18 12 °C 11.4 °C 96 % 0 km/h (0 km/h) 0 mm0 mm
05:12 12.1 °C 11.5 °C 96 % 0 km/h (0 km/h) 0 mm0 mm
05:06 12.2 °C 11.6 °C 96 % 0 km/h (6 km/h) 0 mm0 mm
05:00 12 °C 11.2 °C 95 % 4 km/h (7 km/h) 0 mm0 mm
04:54 12.1 °C 11.5 °C 96 % 3 km/h (6 km/h) 0 mm0 mm
04:48 12.1 °C 11.5 °C 96 % 0 km/h (3 km/h) 0 mm0 mm
04:42 12.2 °C 11.6 °C 96 % 0 km/h (3 km/h) 0 mm0 mm
04:36 12.3 °C 11.7 °C 96 % 0 km/h (2 km/h) 0 mm0 mm
04:30 12.3 °C 11.7 °C 96 % 0 km/h (2 km/h) 0 mm0 mm
04:24 12.2 °C 11.4 °C 95 % 0 km/h (2 km/h) 0 mm0 mm
04:18 12.1 °C 11.2 °C 94 % 0 km/h (2 km/h) 0 mm0 mm
04:12 12.4 °C 11.6 °C 95 % 0 km/h (2 km/h) 0 mm0 mm
04:06 12.3 °C 11.5 °C 95 % 2 km/h (3 km/h) 0 mm0 mm
04:00 12.3 °C 11.5 °C 95 % 2 km/h (3 km/h) 0 mm0 mm
03:54 12.4 °C 11.5 °C 94 % 0 km/h (3 km/h) 0 mm0 mm
03:48 12.5 °C 11.7 °C 95 % 0 km/h (0 km/h) 0 mm0 mm
03:42 12.6 °C 11.8 °C 95 % 0 km/h (2 km/h) 0 mm0 mm
03:36 12.6 °C 11.8 °C 95 % 0 km/h (2 km/h) 0 mm0 mm
03:30 12.7 °C 11.9 °C 95 % 0 km/h (0 km/h) 0 mm0 mm
03:24 12.6 °C 11.7 °C 94 % 0 km/h (0 km/h) 0 mm0 mm
03:18 12.6 °C 11.7 °C 94 % 0 km/h (0 km/h) 0 mm0 mm
03:12 12.6 °C 11.5 °C 93 % 0 km/h (3 km/h) 0 mm0 mm
03:06 12.7 °C 11.6 °C 93 % 3 km/h (4 km/h) 0 mm0 mm
03:00 12.8 °C 11.7 °C 93 % 3 km/h (4 km/h) 0 mm0 mm
02:54 12.9 °C 12 °C 94 % 3 km/h (4 km/h) 0 mm0 mm
02:48 13 °C 11.9 °C 93 % 3 km/h (4 km/h) 0 mm0 mm
02:42 13 °C 12.1 °C 94 % 2 km/h (4 km/h) 0 mm0 mm
02:36 13 °C 12.1 °C 94 % 2 km/h (4 km/h) 0 mm0 mm
02:30 13 °C 11.9 °C 93 % 3 km/h (4 km/h) 0 mm0 mm
02:24 13.1 °C 12 °C 93 % 3 km/h (4 km/h) 0 mm0 mm
02:18 13.1 °C 12 °C 93 % 2 km/h (4 km/h) 0 mm0 mm
02:12 13.1 °C 12 °C 93 % 2 km/h (3 km/h) 0 mm0 mm
02:06 13.3 °C 12.2 °C 93 % 0 km/h (3 km/h) 0 mm0 mm
02:00 13.4 °C 12.3 °C 93 % 0 km/h (0 km/h) 0 mm0 mm
01:54 13.5 °C 12.4 °C 93 % 0 km/h (2 km/h) 0 mm0 mm
01:48 13.4 °C 12.3 °C 93 % 0 km/h (3 km/h) 0 mm0 mm
01:42 13.4 °C 12.3 °C 93 % 2 km/h (3 km/h) 0 mm0 mm
01:36 13.3 °C 11.9 °C 91 % 2 km/h (3 km/h) 0 mm0 mm
01:30 13.5 °C 12.2 °C 92 % 2 km/h (3 km/h) 0 mm0 mm
01:24 13.6 °C 12.3 °C 92 % 0 km/h (2 km/h) 0 mm0 mm
01:18 13.5 °C 12.1 °C 91 % 2 km/h (4 km/h) 0 mm0 mm
01:12 13.6 °C 12.2 °C 91 % 3 km/h (4 km/h) 0 mm0 mm
01:06 13.7 °C 12.4 °C 92 % 2 km/h (4 km/h) 0 mm0 mm
01:00 13.7 °C 12.3 °C 91 % 0 km/h (3 km/h) 0 mm0 mm
00:54 13.8 °C 12.4 °C 91 % 0 km/h (2 km/h) 0 mm0 mm
00:48 14 °C 12.9 °C 93 % 0 km/h (2 km/h) 0 mm0 mm
00:42 14.1 °C 12.8 °C 92 % 0 km/h (3 km/h) 0 mm0 mm
00:36 14.2 °C 12.9 °C 92 % 0 km/h (3 km/h) 0 mm0 mm
00:30 14.3 °C 13 °C 92 % 2 km/h (3 km/h) 0 mm0 mm
00:24 14.4 °C 13.1 °C 92 % 2 km/h (3 km/h) 0 mm0 mm
00:18 14.5 °C 13.2 °C 92 % 3 km/h (5 km/h) 0 mm0 mm
00:12 14.1 °C 12.3 °C 89 % 4 km/h (5 km/h) 0 mm0 mm
00:06 14.2 °C 12.4 °C 89 % 3 km/h (5 km/h) 0 mm0 mm
00:00 14.2 °C 12.1 °C 87 % 2 km/h (4 km/h) 0 mm0 mm

Données via Météo-France

Relevés météo à Leran

Cette page rassemble les observations de la station de Leran : température, humidité, vent, précipitations et pression atmosphérique. Les graphiques facilitent le suivi de la journée, tandis que le tableau donne accès aux mesures horaires et infra-horaires disponibles.

Pour replacer ces mesures dans leur contexte, consultez la climatologie de Leran ainsi que ses normales et records. Retrouvez aussi la carte des observations météo en temps réel.